Weather History for PHHI - October, 2012

Change the Weather History Date:

Monday, October 15, 2012

  Actual Average Record
Temperature  
Mean Temperature 75 °F -  
Max Temperature 81 °F 80 °F 84 °F (1996)
Min Temperature 69 °F 67 °F 63 °F (2010)
Cooling Degree Days 10    
Growing Degree Days 25 (Base 50)    
Moisture  
Dew Point 66 °F    
Average Humidity 81    
Maximum Humidity 94    
Minimum Humidity 54    
Precipitation  
Precipitation 0.03 in - - ()
Sea Level Pressure  
Sea Level Pressure 30.04 in    
Wind  
Wind Speed 3 mph (East)    
Max Wind Speed 18 mph    
Max Gust Speed 26 mph    
Visibility 9 miles    
Events Rain    
Averages and records for this station are not official NWS values.
T = Trace of Precipitation, MM = Missing Value Source: NWS Daily Summary

Daily Weather History Graph

Daily Weather History Graph

Search for Another Location

Airport or City:

Trip Planner

Search our weather history database for the weather conditions in past years. The results will help you decide how hot, cold, wet, or windy it might be!

Date:

Astronomy

Oct. 15, 2012 Rise Set
Actual Time 6:28 AM HST 6:07 PM HST
Civil Twilight 6:05 AM HST 6:29 PM HST
Nautical Twilight 5:39 AM HST 6:55 PM HST
Astronomical Twilight 5:13 AM HST 7:21 PM HST
Moon 6:43 AM HST (10/15) 6:26 PM HST (10/15)
Length of Visible Light 12h 23m
Length of Day
11h 38m
New Moon, 0% of the Moon is Illuminated
Oct 15
New Moon
Oct 21
First Quarter
Oct 29
Full
Nov 6
Last Quarter
Nov 13
New

Hourly Weather History & Observations

Time (HST) Temp. Heat Index Dew Point Humidity Pressure Visibility Wind Dir Wind Speed Gust Speed Precip Events Conditions
12:00 AM 71.6 °F - 68.0 °F 88% 30.09 in 10.0 mi SW 3.5 mph - N/A   Mostly Cloudy
12:17 AM 71.6 °F - 68.0 °F 88% 30.08 in 10.0 mi Calm Calm - N/A   Overcast
12:31 AM 71.6 °F - 68.0 °F 88% 30.08 in 10.0 mi SSE 3.5 mph - N/A   Mostly Cloudy
12:33 AM 71.6 °F - 68.0 °F 88% 30.08 in 10.0 mi South 4.6 mph - N/A   Mostly Cloudy
12:44 AM 71.6 °F - 66.2 °F 83% 30.08 in 10.0 mi Calm Calm - N/A   Mostly Cloudy
12:52 AM 71.6 °F - 66.2 °F 83% 30.08 in 10.0 mi Calm Calm - N/A   Mostly Cloudy
12:53 AM 71.6 °F - 66.2 °F 83% 30.08 in 10.0 mi Calm Calm - N/A   Mostly Cloudy
12:54 AM 71.6 °F - 66.2 °F 83% 30.08 in 10.0 mi Calm Calm - N/A   Mostly Cloudy
12:55 AM 71.8 °F - 66.9 °F 85% 30.08 in 10.0 mi Calm Calm - N/A   Mostly Cloudy
1:28 AM 71.6 °F - 68.0 °F 88% 30.07 in 10.0 mi Calm Calm - N/A   Overcast
1:29 AM 71.6 °F - 68.0 °F 88% 30.07 in 9.0 mi Variable 3.5 mph - N/A   Overcast
1:31 AM 71.6 °F - 68.0 °F 88% 30.07 in 6.0 mi Calm Calm - N/A Rain Light Rain
1:34 AM 71.6 °F - 68.0 °F 88% 30.07 in 4.0 mi Calm Calm - N/A Rain Light Rain
1:37 AM 71.6 °F - 68.0 °F 88% 30.07 in 2.5 mi East 3.5 mph - N/A Rain Rain
1:38 AM 71.6 °F - 68.0 °F 88% 30.07 in 2.5 mi East 3.5 mph - N/A Rain Rain
1:44 AM 71.6 °F - 68.0 °F 88% 30.07 in 3.0 mi Calm Calm - N/A Rain Light Rain
1:55 AM 70.9 °F - 67.5 °F 89% 30.06 in 10.0 mi WSW 3.5 mph - 0.02 in   Overcast
2:19 AM 69.8 °F - 68.0 °F 94% 30.06 in 10.0 mi WNW 3.5 mph - N/A   Overcast
2:32 AM 69.8 °F - 68.0 °F 94% 30.06 in 10.0 mi Calm Calm - N/A   Overcast
2:37 AM 69.8 °F - 68.0 °F 94% 30.06 in 8.0 mi Calm Calm - N/A   Light Drizzle
2:49 AM 69.8 °F - 68.0 °F 94% 30.06 in 8.0 mi Calm Calm - N/A   Overcast
2:54 AM 69.8 °F - 68.0 °F 94% 30.06 in 8.0 mi Calm Calm - N/A   Light Drizzle
2:55 AM 70.3 °F - 67.6 °F 91% 30.06 in 7.0 mi WSW 3.5 mph - 0.00 in   Light Drizzle
3:09 AM 69.8 °F - 68.0 °F 94% 30.06 in 9.0 mi East 3.5 mph - N/A   Light Drizzle
3:10 AM 69.8 °F - 68.0 °F 94% 30.06 in 10.0 mi East 5.8 mph - N/A   Mostly Cloudy
3:15 AM 69.8 °F - 68.0 °F 94% 30.06 in 10.0 mi ESE 4.6 mph - N/A   Mostly Cloudy
3:25 AM 69.8 °F - 68.0 °F 94% 30.06 in 10.0 mi East 4.6 mph - N/A   Mostly Cloudy
3:55 AM 70.2 °F - 66.7 °F 89% 30.05 in 10.0 mi WSW 3.5 mph - 0.01 in   Mostly Cloudy
4:52 AM 69.8 °F - 66.2 °F 88% 30.05 in 10.0 mi ENE 3.5 mph - N/A   Mostly Cloudy
4:55 AM 70.5 °F - 66.9 °F 88% 30.05 in 10.0 mi Calm Calm - N/A   Mostly Cloudy
5:26 AM 71.6 °F - 66.2 °F 83% 30.06 in 10.0 mi ENE 4.6 mph - N/A   Light Drizzle
5:44 AM 71.6 °F - 66.2 °F 83% 30.06 in 10.0 mi East 6.9 mph - N/A   Partly Cloudy
5:55 AM 70.9 °F - 66.6 °F 86% 30.06 in 10.0 mi East 6.9 mph - 0.00 in   Scattered Clouds
6:03 AM 71.6 °F - 66.2 °F 83% 30.06 in 10.0 mi East 6.9 mph - N/A   Light Drizzle
6:13 AM 71.6 °F - 66.2 °F 83% 30.06 in 10.0 mi East 6.9 mph - N/A   Mostly Cloudy
6:36 AM 71.6 °F - 66.2 °F 83% 30.07 in 10.0 mi East 4.6 mph - N/A   Light Drizzle
6:50 AM 71.6 °F - 66.2 °F 83% 30.07 in 10.0 mi East 6.9 mph - N/A   Mostly Cloudy
6:55 AM 71.2 °F - 66.7 °F 86% 30.07 in 10.0 mi East 6.9 mph - 0.00 in   Mostly Cloudy
7:55 AM 72.9 °F - 65.3 °F 77% 30.08 in 10.0 mi ENE 6.9 mph - N/A   Scattered Clouds
8:55 AM 74.1 °F - 64.6 °F 72% 30.09 in 10.0 mi ENE 6.9 mph - N/A   Clear
9:55 AM 75.7 °F - 64.4 °F 68% 30.08 in 10.0 mi ENE 9.2 mph - N/A   Mostly Cloudy
10:55 AM 77.5 °F - 64.6 °F 64% 30.06 in 10.0 mi ENE 10.4 mph - N/A   Overcast
11:55 AM 79.5 °F - 63.5 °F 58% 30.04 in 10.0 mi East 9.2 mph 20.7 mph N/A   Mostly Cloudy
12:55 PM 81.0 °F 82.3 °F 63.3 °F 55% 30.01 in 10.0 mi East 12.7 mph - N/A   Mostly Cloudy
1:55 PM 80.8 °F 82.0 °F 62.8 °F 54% 29.98 in 10.0 mi East 18.4 mph 26.5 mph N/A   Mostly Cloudy
2:55 PM 80.4 °F 81.7 °F 63.1 °F 55% 29.97 in 10.0 mi ESE 8.1 mph 18.4 mph N/A   Scattered Clouds
3:55 PM 79.2 °F - 64.0 °F 60% 29.96 in 10.0 mi ESE 8.1 mph - N/A   Clear
4:55 PM 77.4 °F - 64.6 °F 65% 29.97 in 10.0 mi ESE 6.9 mph - N/A   Mostly Cloudy
5:55 PM 76.3 °F - 64.8 °F 67% 29.98 in 10.0 mi ESE 6.9 mph - N/A   Mostly Cloudy
6:46 PM 75.2 °F - 66.2 °F 73% 29.99 in 10.0 mi SE 4.6 mph - N/A   Overcast
6:55 PM 75.2 °F - 65.7 °F 72% 29.99 in 10.0 mi ENE 9.2 mph - N/A   Overcast
7:33 PM 75.2 °F - 66.2 °F 73% 30.01 in 10.0 mi Calm Calm - N/A   Light Drizzle
7:39 PM 73.4 °F - 66.2 °F 78% 30.01 in 10.0 mi Calm Calm - N/A   Overcast
7:42 PM 73.4 °F - 66.2 °F 78% 30.01 in 10.0 mi Calm Calm - N/A   Light Drizzle
7:50 PM 73.4 °F - 66.2 °F 78% 30.01 in 10.0 mi East 4.6 mph - N/A   Light Drizzle
7:53 PM 73.4 °F - 66.2 °F 78% 30.01 in 10.0 mi ENE 4.6 mph - N/A   Light Drizzle
7:55 PM 74.3 °F - 66.0 °F 75% 30.02 in 10.0 mi East 4.6 mph - 0.00 in   Light Drizzle
7:57 PM 73.4 °F - 66.2 °F 78% 30.02 in 10.0 mi East 5.8 mph - N/A   Light Drizzle
7:58 PM 73.4 °F - 66.2 °F 78% 30.02 in 10.0 mi East 5.8 mph - N/A   Overcast
7:59 PM 73.4 °F - 66.2 °F 78% 30.02 in 10.0 mi ENE 4.6 mph - N/A   Overcast
8:01 PM 73.4 °F - 66.2 °F 78% 30.02 in 10.0 mi ENE 3.5 mph - N/A   Overcast
8:09 PM 73.4 °F - 66.2 °F 78% 30.02 in 10.0 mi East 5.8 mph - N/A   Light Drizzle
8:19 PM 73.4 °F - 66.2 °F 78% 30.02 in 10.0 mi ENE 6.9 mph - N/A   Overcast
8:55 PM 73.9 °F - 66.4 °F 77% 30.03 in 10.0 mi East 4.6 mph - 0.00 in   Overcast
9:55 PM 73.8 °F - 66.2 °F 77% 30.03 in 10.0 mi East 4.6 mph - N/A   Scattered Clouds
10:55 PM 73.0 °F - 66.0 °F 79% 30.01 in 10.0 mi NE 6.9 mph - N/A   Clear
11:55 PM 71.2 °F - 65.3 °F 81% 30.00 in 10.0 mi East 4.6 mph - N/A   Clear